546  
ASUS43 KGLD 050408  
RWRGLD  
 
GOODLAND FORECAST AREA HOURLY WEATHER ROUNDUP  
NATIONAL WEATHER SERVICE GOODLAND KS  
1000 PM MDT SAT APR 04 2020  
   
..OFFICIAL OBSERVATIONS
 
 
 
CITY SKY/WX TMP DP RH WIND PRES REMARKS
 
GOODLAND KS FAIR 38 19 46 S17 29.94S  
HILL CITY KS FAIR 33 20 58 E5 30.04R  
IMPERIAL NEB FAIR 38 20 48 SE14 29.95R  
MCCOOK NEB FAIR 35 18 49 SE6 29.99S  
AKRON CO FAIR 42 26 53 S20G30 29.88R  
BURLINGTON CO MOCLDY 41 22 46 SE17 29.94R  
LIMON CO FAIR 39 25 57 SE14 29.91R  

 
   
..UNOFFICIAL OBSERVATIONS
 
 
 
CITY SKY/WX TMP DP RH WIND PRES REMARKS
 
COLBY KS FAIR 36 19 51 SE13 29.99S  
SHARON SPRINGS N/A 38 20 48 SE14 N/A  
YUMA CO FAIR 37 21 52 SE14 29.90  

 
 
 
CLICK HERE TO GO TO PREVIOUS BULLETINS.

The Nexlab KS Page
The Nexlab CO Page
The Nexlab NE Page Main Text Page